"Sample Date","Sample Time","Sample Value","Units","Flow Rate","Sample Interval","Number Channels","Micron Size 0","Counts/Channel 0","Micron Size 1","Counts/Channel 1","Micron Size 2","Counts/Channel 2","Micron Size 3","Counts/Channel 3","Micron Size 4","Counts/Channel 4","Micron Size 5","Counts/Channel 5","Micron Size 6","Counts/Channel 6","Micron Size 7","Counts/Channel 7","Micron Size 8","Counts/Channel 8","Micron Size 9","Counts/Channel 9","Micron Size 10","Counts/Channel 10","Micron Size 11","Counts/Channel 11","Micron Size 12","Counts/Channel 12","Micron Size 13","Counts/Channel 13","Micron Size 14","Counts/Channel 14","Micron Size 15","Counts/Channel 15","Micron Size 16","Counts/Channel 16","Micron Size 17","Counts/Channel 17","Micron Size 18","Counts/Channel 18","Micron Size 19","Counts/Channel 19","Micron Size 20","Counts/Channel 20","Micron Size 21","Counts/Channel 21","Micron Size 22","Counts/Channel 22","Micron Size 23","Counts/Channel 23","Micron Size 24","Counts/Channel 24","Micron Size 25","Counts/Channel 25","Micron Size 26","Counts/Channel 26","Micron Size 27","Counts/Channel 27","Micron Size 28","Counts/Channel 28","Micron Size 29","Counts/Channel 29","Micron Size 30","Counts/Channel 30","Micron Size 31","Counts/Channel 31"
"04/03/08","15:00:03",16568.000,"cc",28268.018,6.00,6,0.100,10398.000,0.200,2241.000,0.300,1665.000,0.500,1674.000,1.000,590.000,5.000,0
"04/03/08","15:00:09",16733.000,"cc",28380.272,6.00,6,0.100,10382.000,0.200,2291.000,0.300,1689.000,0.500,1729.000,1.000,642.000,5.000,0
"04/03/08","15:00:15",16818.000,"cc",28341.666,6.00,6,0.100,10449.000,0.200,2281.000,0.300,1725.000,0.500,1724.000,1.000,639.000,5.000,0
"04/03/08","15:00:21",16918.000,"cc",28282.867,6.00,6,0.100,10673.000,0.200,2298.000,0.300,1623.000,0.500,1734.000,1.000,590.000,5.000,0
"04/03/08","15:00:27",16512.000,"cc",28342.904,6.00,6,0.100,10243.000,0.200,2223.000,0.300,1670.000,0.500,1770.000,1.000,606.000,5.000,0
"04/03/08","15:00:33",16452.000,"cc",28288.516,6.00,6,0.100,10211.000,0.200,2226.000,0.300,1635.000,0.500,1800.000,1.000,580.000,5.000,0
"04/03/08","15:00:39",16669.000,"cc",28289.531,6.00,6,0.100,10253.000,0.200,2351.000,0.300,1708.000,0.500,1791.000,1.000,566.000,5.000,0
"04/03/08","15:00:45",16507.000,"cc",28300.445,6.00,6,0.100,10243.000,0.200,2229.000,0.300,1680.000,0.500,1755.000,1.000,600.000,5.000,0
"04/03/08","15:00:51",16792.000,"cc",28322.320,6.00,6,0.100,10388.000,0.200,2400.000,0.300,1634.000,0.500,1746.000,1.000,623.000,5.000,1.000
"04/03/08","15:00:57",16925.000,"cc",28260.240,6.00,6,0.100,10490.000,0.200,2271.000,0.300,1680.000,0.500,1861.000,1.000,623.000,5.000,0
"04/03/08","15:01:03",16798.000,"cc",28312.445,6.00,6,0.100,10307.000,0.200,2367.000,0.300,1733.000,0.500,1779.000,1.000,612.000,5.000,0
"04/03/08","15:01:09",16778.000,"cc",28367.846,6.00,6,0.100,10390.000,0.200,2286.000,0.300,1675.000,0.500,1820.000,1.000,607.000,5.000,0
"04/03/08","15:01:15",16579.000,"cc",28363.885,6.00,6,0.100,10301.000,0.200,2269.000,0.300,1704.000,0.500,1754.000,1.000,551.000,5.000,0
"04/03/08","15:01:21",16789.000,"cc",28254.315,6.00,6,0.100,10387.000,0.200,2312.000,0.300,1683.000,0.500,1796.000,1.000,611.000,5.000,0
"04/03/08","15:01:27",16677.000,"cc",28317.920,6.00,6,0.100,10343.000,0.200,2316.000,0.300,1626.000,0.500,1764.000,1.000,628.000,5.000,0
"04/03/08","15:01:33",16950.000,"cc",28292.115,6.00,6,0.100,10556.000,0.200,2314.000,0.300,1692.000,0.500,1762.000,1.000,626.000,5.000,0
"04/03/08","15:01:39",16719.000,"cc",28356.826,6.00,6,0.100,10344.000,0.200,2255.000,0.300,1657.000,0.500,1837.000,1.000,626.000,5.000,0
"04/03/08","15:01:45",16648.000,"cc",28297.555,6.00,6,0.100,10351.000,0.200,2333.000,0.300,1649.000,0.500,1733.000,1.000,582.000,5.000,0
"04/03/08","15:01:51",16556.000,"cc",28394.027,6.00,6,0.100,10210.000,0.200,2309.000,0.300,1680.000,0.500,1757.000,1.000,600.000,5.000,0
"04/03/08","15:01:57",16860.000,"cc",28301.920,6.00,6,0.100,10485.000,0.200,2322.000,0.300,1687.000,0.500,1826.000,1.000,540.000,5.000,0
"04/03/08","15:02:03",16643.000,"cc",28314.721,6.00,6,0.100,10204.000,0.200,2382.000,0.300,1643.000,0.500,1805.000,1.000,609.000,5.000,0
"04/03/08","15:02:09",16821.000,"cc",28277.266,6.00,6,0.100,10501.000,0.200,2299.000,0.300,1656.000,0.500,1775.000,1.000,590.000,5.000,0
"04/03/08","15:02:15",16815.000,"cc",28348.779,6.00,6,0.100,10340.000,0.200,2366.000,0.300,1626.000,0.500,1837.000,1.000,646.000,5.000,0
"04/03/08","15:02:21",16641.000,"cc",28297.445,6.00,6,0.100,10336.000,0.200,2252.000,0.300,1652.000,0.500,1806.000,1.000,595.000,5.000,0
"04/03/08","15:02:27",16620.000,"cc",28389.565,6.00,6,0.100,10182.000,0.200,2331.000,0.300,1669.000,0.500,1801.000,1.000,637.000,5.000,0
"04/03/08","15:02:33",16838.000,"cc",28297.398,6.00,6,0.100,10474.000,0.200,2330.000,0.300,1682.000,0.500,1730.000,1.000,622.000,5.000,0
"04/03/08","15:02:39",16695.000,"cc",28282.709,6.00,6,0.100,10384.000,0.200,2295.000,0.300,1684.000,0.500,1760.000,1.000,572.000,5.000,0
"04/03/08","15:02:45",16949.000,"cc",28299.268,6.00,6,0.100,10429.000,0.200,2336.000,0.300,1709.000,0.500,1849.000,1.000,626.000,5.000,0
"04/03/08","15:02:51",16635.000,"cc",28297.291,6.00,6,0.100,10264.000,0.200,2336.000,0.300,1713.000,0.500,1704.000,1.000,618.000,5.000,0
"04/03/08","15:02:57",16808.000,"cc",28346.352,6.00,6,0.100,10426.000,0.200,2395.000,0.300,1608.000,0.500,1760.000,1.000,619.000,5.000,0
"04/03/08","15:03:03",16775.000,"cc",28340.440,6.00,6,0.100,10377.000,0.200,2226.000,0.300,1724.000,0.500,1831.000,1.000,617.000,5.000,0
"04/03/08","15:03:09",16730.000,"cc",28323.102,6.00,6,0.100,10300.000,0.200,2336.000,0.300,1695.000,0.500,1771.000,1.000,628.000,5.000,0
"04/03/08","15:03:15",16730.000,"cc",28274.510,6.00,6,0.100,10394.000,0.200,2293.000,0.300,1676.000,0.500,1749.000,1.000,618.000,5.000,0
"04/03/08","15:03:21",16645.000,"cc",28335.162,6.00,6,0.100,10363.000,0.200,2267.000,0.300,1614.000,0.500,1832.000,1.000,569.000,5.000,0
"04/03/08","15:03:27",16607.000,"cc",28350.328,6.00,6,0.100,10259.000,0.200,2303.000,0.300,1696.000,0.500,1764.000,1.000,585.000,5.000,0
"04/03/08","15:03:33",16725.000,"cc",28318.631,6.00,6,0.100,10312.000,0.200,2262.000,0.300,1724.000,0.500,1848.000,1.000,579.000,5.000,0
"04/03/08","15:03:39",16574.000,"cc",28268.666,6.00,6,0.100,10263.000,0.200,2277.000,0.300,1630.000,0.500,1747.000,1.000,657.000,5.000,0
"04/03/08","15:03:45",16782.000,"cc",28307.410,6.00,6,0.100,10442.000,0.200,2207.000,0.300,1684.000,0.500,1824.000,1.000,625.000,5.000,0
"04/03/08","15:03:51",16756.000,"cc",28333.565,6.00,6,0.100,10336.000,0.200,2331.000,0.300,1661.000,0.500,1829.000,1.000,599.000,5.000,0
"04/03/08","15:03:57",16693.000,"cc",28357.490,6.00,6,0.100,10314.000,0.200,2258.000,0.300,1624.000,0.500,1875.000,1.000,622.000,5.000,0
"04/03/08","15:04:03",16573.000,"cc",28308.404,6.00,6,0.100,10271.000,0.200,2268.000,0.300,1621.000,0.500,1836.000,1.000,577.000,5.000,0
"04/03/08","15:04:09",16689.000,"cc",28282.563,6.00,6,0.100,10349.000,0.200,2285.000,0.300,1612.000,0.500,1781.000,1.000,662.000,5.000,0
"04/03/08","15:04:15",16852.000,"cc",28343.902,6.00,6,0.100,10496.000,0.200,2328.000,0.300,1627.000,0.500,1764.000,1.000,637.000,5.000,0
"04/03/08","15:04:21",16740.000,"cc",28359.002,6.00,6,0.100,10412.000,0.200,2214.000,0.300,1664.000,0.500,1844.000,1.000,606.000,5.000,0
"04/03/08","15:04:27",16741.000,"cc",28268.594,6.00,6,0.100,10379.000,0.200,2403.000,0.300,1640.000,0.500,1754.000,1.000,565.000,5.000,0
"04/03/08","15:04:33",16667.000,"cc",28361.889,6.00,6,0.100,10267.000,0.200,2308.000,0.300,1683.000,0.500,1841.000,1.000,568.000,5.000,0
"04/03/08","15:04:39",16793.000,"cc",28290.010,6.00,6,0.100,10293.000,0.200,2365.000,0.300,1701.000,0.500,1807.000,1.000,627.000,5.000,0
"04/03/08","15:04:45",16471.000,"cc",28323.609,6.00,6,0.100,10120.000,0.200,2318.000,0.300,1622.000,0.500,1825.000,1.000,586.000,5.000,0
"04/03/08","15:04:51",16849.000,"cc",28291.941,6.00,6,0.100,10336.000,0.200,2348.000,0.300,1725.000,0.500,1843.000,1.000,597.000,5.000,0
"04/03/08","15:04:57",16961.000,"cc",28289.111,6.00,6,0.100,10574.000,0.200,2353.000,0.300,1636.000,0.500,1760.000,1.000,638.000,5.000,0
"04/03/08","15:05:03",16714.000,"cc",28316.191,6.00,6,0.100,10481.000,0.200,2267.000,0.300,1608.000,0.500,1754.000,1.000,604.000,5.000,0
"04/03/08","15:05:09",16588.000,"cc",28337.330,6.00,6,0.100,10333.000,0.200,2237.000,0.300,1674.000,0.500,1746.000,1.000,598.000,5.000,0
"04/03/08","15:05:15",17068.000,"cc",28336.963,6.00,6,0.100,10606.000,0.200,2398.000,0.300,1648.000,0.500,1796.000,1.000,620.000,5.000,0
"04/03/08","15:05:21",16626.000,"cc",28339.361,6.00,6,0.100,10245.000,0.200,2343.000,0.300,1664.000,0.500,1749.000,1.000,625.000,5.000,0
"04/03/08","15:05:27",16819.000,"cc",28307.777,6.00,6,0.100,10328.000,0.200,2339.000,0.300,1712.000,0.500,1790.000,1.000,650.000,5.000,0
"04/03/08","15:05:33",16841.000,"cc",28297.553,6.00,6,0.100,10485.000,0.200,2287.000,0.300,1653.000,0.500,1808.000,1.000,608.000,5.000,0
"04/03/08","15:05:39",16788.000,"cc",28258.736,6.00,6,0.100,10399.000,0.200,2299.000,0.300,1713.000,0.500,1761.000,1.000,616.000,5.000,0
"04/03/08","15:05:45",16676.000,"cc",28334.727,6.00,6,0.100,10238.000,0.200,2295.000,0.300,1745.000,0.500,1772.000,1.000,626.000,5.000,0
"04/03/08","15:05:51",16620.000,"cc",28326.039,6.00,6,0.100,10355.000,0.200,2245.000,0.300,1686.000,0.500,1739.000,1.000,595.000,5.000,0
"04/03/08","15:05:57",16542.000,"cc",28357.729,6.00,6,0.100,10095.000,0.200,2341.000,0.300,1754.000,0.500,1730.000,1.000,622.000,5.000,0
"04/03/08","15:06:03",16581.000,"cc",28299.744,6.00,6,0.100,10201.000,0.200,2373.000,0.300,1655.000,0.500,1697.000,1.000,655.000,5.000,0
"04/03/08","15:06:09",17018.000,"cc",28309.293,6.00,6,0.100,10563.000,0.200,2324.000,0.300,1687.000,0.500,1836.000,1.000,608.000,5.000,0
"04/03/08","15:06:15",16896.000,"cc",28258.484,6.00,6,0.100,10365.000,0.200,2324.000,0.300,1666.000,0.500,1903.000,1.000,638.000,5.000,0
"04/03/08","15:06:21",16690.000,"cc",28287.715,6.00,6,0.100,10225.000,0.200,2337.000,0.300,1724.000,0.500,1821.000,1.000,583.000,5.000,0
"04/03/08","15:06:27",16657.000,"cc",28353.701,6.00,6,0.100,10331.000,0.200,2344.000,0.300,1657.000,0.500,1725.000,1.000,600.000,5.000,0
"04/03/08","15:06:33",16422.000,"cc",28349.164,6.00,6,0.100,9983.000,0.200,2380.000,0.300,1696.000,0.500,1775.000,1.000,588.000,5.000,0
"04/03/08","15:06:39",16418.000,"cc",28325.231,6.00,6,0.100,10149.000,0.200,2311.000,0.300,1614.000,0.500,1754.000,1.000,590.000,5.000,0
"04/03/08","15:06:45",16635.000,"cc",28334.488,6.00,6,0.100,10263.000,0.200,2311.000,0.300,1666.000,0.500,1747.000,1.000,648.000,5.000,0
"04/03/08","15:06:51",16354.000,"cc",28337.764,6.00,6,0.100,9931.000,0.200,2350.000,0.300,1701.000,0.500,1780.000,1.000,592.000,5.000,0
"04/03/08","15:06:57",16627.000,"cc",28302.213,6.00,6,0.100,10230.000,0.200,2284.000,0.300,1731.000,0.500,1805.000,1.000,577.000,5.000,0
"04/03/08","15:07:03",16602.000,"cc",28307.670,6.00,6,0.100,10263.000,0.200,2233.000,0.300,1685.000,0.500,1787.000,1.000,634.000,5.000,0
"04/03/08","15:07:09",16376.000,"cc",28288.199,6.00,6,0.100,10001.000,0.200,2339.000,0.300,1669.000,0.500,1779.000,1.000,588.000,5.000,0
"04/03/08","15:07:15",16345.000,"cc",28323.338,6.00,6,0.100,10104.000,0.200,2277.000,0.300,1580.000,0.500,1759.000,1.000,625.000,5.000,0
"04/03/08","15:07:21",16411.000,"cc",28298.086,6.00,6,0.100,10043.000,0.200,2268.000,0.300,1699.000,0.500,1818.000,1.000,583.000,5.000,0
"04/03/08","15:07:27",16645.000,"cc",28349.561,6.00,6,0.100,10190.000,0.200,2309.000,0.300,1677.000,0.500,1857.000,1.000,612.000,5.000,0
"04/03/08","15:07:33",16681.000,"cc",28339.535,6.00,6,0.100,10393.000,0.200,2257.000,0.300,1619.000,0.500,1782.000,1.000,630.000,5.000,0
"04/03/08","15:07:39",16708.000,"cc",28289.193,6.00,6,0.100,10297.000,0.200,2356.000,0.300,1685.000,0.500,1723.000,1.000,647.000,5.000,0
"04/03/08","15:07:45",16328.000,"cc",28332.357,6.00,6,0.100,10037.000,0.200,2311.000,0.300,1675.000,0.500,1733.000,1.000,572.000,5.000,0
"04/03/08","15:07:51",16432.000,"cc",28339.873,6.00,6,0.100,10101.000,0.200,2291.000,0.300,1664.000,0.500,1782.000,1.000,594.000,5.000,0
"04/03/08","15:07:57",16581.000,"cc",28273.219,6.00,6,0.100,10205.000,0.200,2300.000,0.300,1627.000,0.500,1791.000,1.000,658.000,5.000,0
"04/03/08","15:08:03",16594.000,"cc",28364.596,6.00,6,0.100,10193.000,0.200,2227.000,0.300,1715.000,0.500,1818.000,1.000,641.000,5.000,0
"04/03/08","15:08:09",16536.000,"cc",28337.662,6.00,6,0.100,10235.000,0.200,2273.000,0.300,1658.000,0.500,1744.000,1.000,626.000,5.000,0
"04/03/08","15:08:15",16713.000,"cc",28229.236,6.00,6,0.100,10335.000,0.200,2311.000,0.300,1629.000,0.500,1824.000,1.000,614.000,5.000,0
"04/03/08","15:08:21",16371.000,"cc",28335.137,6.00,6,0.100,10043.000,0.200,2219.000,0.300,1730.000,0.500,1774.000,1.000,605.000,5.000,0
"04/03/08","15:08:27",16573.000,"cc",28305.039,6.00,6,0.100,10249.000,0.200,2271.000,0.300,1700.000,0.500,1746.000,1.000,607.000,5.000,0
"04/03/08","15:08:33",16034.000,"cc",28320.512,6.00,6,0.100,9859.000,0.200,2231.000,0.300,1691.000,0.500,1639.000,1.000,614.000,5.000,0
"04/03/08","15:08:39",15850.000,"cc",28377.252,6.00,6,0.100,9734.000,0.200,2148.000,0.300,1639.000,0.500,1762.000,1.000,567.000,5.000,0
"04/03/08","15:08:45",16127.000,"cc",28282.363,6.00,6,0.100,9795.000,0.200,2327.000,0.300,1682.000,0.500,1690.000,1.000,633.000,5.000,0
"04/03/08","15:08:51",15831.000,"cc",28335.684,6.00,6,0.100,9670.000,0.200,2201.000,0.300,1591.000,0.500,1773.000,1.000,595.000,5.000,1.000
"04/03/08","15:08:57",15991.000,"cc",28295.387,6.00,6,0.100,9788.000,0.200,2156.000,0.300,1660.000,0.500,1779.000,1.000,608.000,5.000,0
"04/03/08","15:09:03",16152.000,"cc",28298.148,6.00,6,0.100,9857.000,0.200,2250.000,0.300,1627.000,0.500,1816.000,1.000,602.000,5.000,0
"04/03/08","15:09:09",16364.000,"cc",28278.051,6.00,6,0.100,9952.000,0.200,2247.000,0.300,1745.000,0.500,1805.000,1.000,615.000,5.000,0
"04/03/08","15:09:15",16201.000,"cc",28371.080,6.00,6,0.100,9952.000,0.200,2204.000,0.300,1644.000,0.500,1798.000,1.000,603.000,5.000,0
"04/03/08","15:09:21",15981.000,"cc",28374.551,6.00,6,0.100,9727.000,0.200,2241.000,0.300,1613.000,0.500,1785.000,1.000,615.000,5.000,0
"04/03/08","15:09:27",15695.000,"cc",28307.672,6.00,6,0.100,9571.000,0.200,2220.000,0.300,1596.000,0.500,1704.000,1.000,604.000,5.000,0
"04/03/08","15:09:33",15844.000,"cc",28225.076,6.00,6,0.100,9718.000,0.200,2126.000,0.300,1603.000,0.500,1804.000,1.000,593.000,5.000,0
"04/03/08","15:09:39",15814.000,"cc",28334.258,6.00,6,0.100,9691.000,0.200,2158.000,0.300,1602.000,0.500,1759.000,1.000,604.000,5.000,0
"04/03/08","15:09:45",16077.000,"cc",28423.463,6.00,6,0.100,9900.000,0.200,2136.000,0.300,1676.000,0.500,1792.000,1.000,573.000,5.000,0
"04/03/08","15:09:51",16442.000,"cc",28281.178,6.00,6,0.100,10005.000,0.200,2260.000,0.300,1714.000,0.500,1834.000,1.000,629.000,5.000,0
"04/03/08","15:09:57",16290.000,"cc",28218.178,6.00,6,0.100,10036.000,0.200,2172.000,0.300,1662.000,0.500,1774.000,1.000,646.000,5.000,0
"04/03/08","15:10:03",16478.000,"cc",28310.699,6.00,6,0.100,10127.000,0.200,2268.000,0.300,1655.000,0.500,1817.000,1.000,611.000,5.000,0
"04/03/08","15:10:09",16453.000,"cc",28326.121,6.00,6,0.100,10102.000,0.200,2262.000,0.300,1673.000,0.500,1770.000,1.000,646.000,5.000,0
"04/03/08","15:10:15",16082.000,"cc",28373.680,6.00,6,0.100,9861.000,0.200,2213.000,0.300,1631.000,0.500,1759.000,1.000,618.000,5.000,0
"04/03/08","15:10:21",15893.000,"cc",28278.133,6.00,6,0.100,9766.000,0.200,2204.000,0.300,1560.000,0.500,1818.000,1.000,545.000,5.000,0
"04/03/08","15:10:27",16293.000,"cc",28322.754,6.00,6,0.100,9834.000,0.200,2299.000,0.300,1698.000,0.500,1828.000,1.000,634.000,5.000,0
"04/03/08","15:10:33",15993.000,"cc",28375.762,6.00,6,0.100,9823.000,0.200,2106.000,0.300,1651.000,0.500,1813.000,1.000,600.000,5.000,0
"04/03/08","15:10:39",16259.000,"cc",28317.578,6.00,6,0.100,9954.000,0.200,2276.000,0.300,1633.000,0.500,1781.000,1.000,615.000,5.000,0
"04/03/08","15:10:45",16167.000,"cc",28335.057,6.00,6,0.100,9972.000,0.200,2177.000,0.300,1626.000,0.500,1759.000,1.000,633.000,5.000,0
"04/03/08","15:10:51",16137.000,"cc",28392.377,6.00,6,0.100,9801.000,0.200,2286.000,0.300,1663.000,0.500,1767.000,1.000,620.000,5.000,0
"04/03/08","15:10:57",16226.000,"cc",28220.756,6.00,6,0.100,9963.000,0.200,2249.000,0.300,1646.000,0.500,1782.000,1.000,586.000,5.000,0
"04/03/08","15:11:03",16327.000,"cc",28274.545,6.00,6,0.100,10015.000,0.200,2324.000,0.300,1595.000,0.500,1795.000,1.000,598.000,5.000,0
"04/03/08","15:11:09",16100.000,"cc",28330.731,6.00,6,0.100,9899.000,0.200,2192.000,0.300,1650.000,0.500,1776.000,1.000,583.000,5.000,0
"04/03/08","15:11:15",16193.000,"cc",28309.848,6.00,6,0.100,9983.000,0.200,2143.000,0.300,1685.000,0.500,1774.000,1.000,608.000,5.000,0
"04/03/08","15:11:21",16196.000,"cc",28302.350,6.00,6,0.100,10007.000,0.200,2171.000,0.300,1638.000,0.500,1758.000,1.000,622.000,5.000,0
"04/03/08","15:11:27",16453.000,"cc",28308.043,6.00,6,0.100,10143.000,0.200,2289.000,0.300,1724.000,0.500,1722.000,1.000,575.000,5.000,0
"04/03/08","15:11:33",16396.000,"cc",28330.068,6.00,6,0.100,10134.000,0.200,2248.000,0.300,1694.000,0.500,1724.000,1.000,596.000,5.000,0
"04/03/08","15:11:39",16529.000,"cc",28318.824,6.00,6,0.100,10101.000,0.200,2327.000,0.300,1627.000,0.500,1840.000,1.000,634.000,5.000,0
"04/03/08","15:11:45",16510.000,"cc",28335.420,6.00,6,0.100,10137.000,0.200,2298.000,0.300,1659.000,0.500,1788.000,1.000,628.000,5.000,0
"04/03/08","15:11:51",16452.000,"cc",28305.846,6.00,6,0.100,10122.000,0.200,2309.000,0.300,1608.000,0.500,1816.000,1.000,597.000,5.000,0
"04/03/08","15:11:57",16648.000,"cc",28334.897,6.00,6,0.100,10338.000,0.200,2222.000,0.300,1703.000,0.500,1778.000,1.000,607.000,5.000,0
"04/03/08","15:12:03",16472.000,"cc",28298.297,6.00,6,0.100,10102.000,0.200,2269.000,0.300,1671.000,0.500,1826.000,1.000,604.000,5.000,0
"04/03/08","15:12:09",16452.000,"cc",28327.563,6.00,6,0.100,10126.000,0.200,2174.000,0.300,1664.000,0.500,1864.000,1.000,624.000,5.000,0
"04/03/08","15:12:15",16222.000,"cc",28325.059,6.00,6,0.100,9949.000,0.200,2213.000,0.300,1631.000,0.500,1811.000,1.000,618.000,5.000,0
"04/03/08","15:12:21",16445.000,"cc",28309.752,6.00,6,0.100,10185.000,0.200,2264.000,0.300,1661.000,0.500,1717.000,1.000,618.000,5.000,0
"04/03/08","15:12:27",16424.000,"cc",28324.141,6.00,6,0.100,9883.000,0.200,2337.000,0.300,1670.000,0.500,1863.000,1.000,671.000,5.000,0
"04/03/08","15:12:33",16969.000,"cc",28294.037,6.00,6,0.100,10468.000,0.200,2357.000,0.300,1708.000,0.500,1788.000,1.000,648.000,5.000,0
"04/03/08","15:12:39",16314.000,"cc",28366.250,6.00,6,0.100,9973.000,0.200,2214.000,0.300,1696.000,0.500,1798.000,1.000,633.000,5.000,0
"04/03/08","15:12:45",16520.000,"cc",28328.686,6.00,6,0.100,10074.000,0.200,2310.000,0.300,1720.000,0.500,1785.000,1.000,631.000,5.000,0
"04/03/08","15:12:51",16557.000,"cc",28303.131,6.00,6,0.100,10313.000,0.200,2207.000,0.300,1667.000,0.500,1781.000,1.000,589.000,5.000,0
"04/03/08","15:12:57",16498.000,"cc",28321.930,6.00,6,0.100,10148.000,0.200,2263.000,0.300,1658.000,0.500,1799.000,1.000,630.000,5.000,0
"04/03/08","15:13:03",16216.000,"cc",28318.891,6.00,6,0.100,10009.000,0.200,2211.000,0.300,1665.000,0.500,1727.000,1.000,604.000,5.000,0
"04/03/08","15:13:09",16500.000,"cc",28293.359,6.00,6,0.100,10075.000,0.200,2261.000,0.300,1722.000,0.500,1874.000,1.000,568.000,5.000,0
"04/03/08","15:13:15",16465.000,"cc",28322.273,6.00,6,0.100,10206.000,0.200,2136.000,0.300,1699.000,0.500,1796.000,1.000,628.000,5.000,0
"04/03/08","15:13:21",16458.000,"cc",28282.842,6.00,6,0.100,10180.000,0.200,2313.000,0.300,1656.000,0.500,1720.000,1.000,589.000,5.000,0
"04/03/08","15:13:27",16342.000,"cc",28358.988,6.00,6,0.100,10051.000,0.200,2307.000,0.300,1641.000,0.500,1781.000,1.000,562.000,5.000,0
"04/03/08","15:13:33",16513.000,"cc",28284.703,6.00,6,0.100,10154.000,0.200,2297.000,0.300,1628.000,0.500,1817.000,1.000,617.000,5.000,0
"04/03/08","15:13:39",16383.000,"cc",28318.129,6.00,6,0.100,10047.000,0.200,2275.000,0.300,1694.000,0.500,1761.000,1.000,606.000,5.000,0
"04/03/08","15:13:45",16572.000,"cc",28282.779,6.00,6,0.100,10216.000,0.200,2279.000,0.300,1638.000,0.500,1805.000,1.000,634.000,5.000,0
"04/03/08","15:13:51",16701.000,"cc",28353.809,6.00,6,0.100,10234.000,0.200,2282.000,0.300,1693.000,0.500,1834.000,1.000,658.000,5.000,0
"04/03/08","15:13:57",16673.000,"cc",28289.703,6.00,6,0.100,10382.000,0.200,2278.000,0.300,1664.000,0.500,1759.000,1.000,590.000,5.000,0
"04/03/08","15:14:03",16446.000,"cc",28295.522,6.00,6,0.100,10188.000,0.200,2209.000,0.300,1645.000,0.500,1808.000,1.000,596.000,5.000,0
"04/03/08","15:14:09",16548.000,"cc",28311.531,6.00,6,0.100,10143.000,0.200,2309.000,0.300,1682.000,0.500,1810.000,1.000,604.000,5.000,0
"04/03/08","15:14:15",16470.000,"cc",28330.873,6.00,6,0.100,10094.000,0.200,2346.000,0.300,1706.000,0.500,1758.000,1.000,566.000,5.000,0
"04/03/08","15:14:21",16407.000,"cc",28328.494,6.00,6,0.100,10044.000,0.200,2330.000,0.300,1628.000,0.500,1797.000,1.000,608.000,5.000,0
"04/03/08","15:14:27",16704.000,"cc",28311.834,6.00,6,0.100,10408.000,0.200,2249.000,0.300,1726.000,0.500,1737.000,1.000,584.000,5.000,0
"04/03/08","15:14:33",16756.000,"cc",28275.268,6.00,6,0.100,10277.000,0.200,2346.000,0.300,1768.000,0.500,1782.000,1.000,583.000,5.000,0
"04/03/08","15:14:39",16427.000,"cc",28279.107,6.00,6,0.100,10213.000,0.200,2240.000,0.300,1675.000,0.500,1654.000,1.000,645.000,5.000,0
"04/03/08","15:14:45",16280.000,"cc",28299.139,6.00,6,0.100,9999.000,0.200,2320.000,0.300,1651.000,0.500,1721.000,1.000,589.000,5.000,0
"04/03/08","15:14:51",16621.000,"cc",28286.043,6.00,6,0.100,10199.000,0.200,2340.000,0.300,1627.000,0.500,1846.000,1.000,609.000,5.000,0
"04/03/08","15:14:57",16537.000,"cc",28348.086,6.00,6,0.100,10140.000,0.200,2299.000,0.300,1633.000,0.500,1828.000,1.000,637.000,5.000,0
"04/03/08","15:15:03",16376.000,"cc",28362.457,6.00,6,0.100,10018.000,0.200,2249.000,0.300,1661.000,0.500,1843.000,1.000,605.000,5.000,0
"04/03/08","15:15:09",16537.000,"cc",28323.207,6.00,6,0.100,10218.000,0.200,2244.000,0.300,1708.000,0.500,1764.000,1.000,603.000,5.000,0
"04/03/08","15:15:15",16298.000,"cc",28320.023,6.00,6,0.100,10054.000,0.200,2248.000,0.300,1623.000,0.500,1762.000,1.000,611.000,5.000,0
"04/03/08","15:15:21",16219.000,"cc",28306.988,6.00,6,0.100,10016.000,0.200,2195.000,0.300,1621.000,0.500,1795.000,1.000,592.000,5.000,0
"04/03/08","15:15:27",16616.000,"cc",28264.682,6.00,6,0.100,10295.000,0.200,2353.000,0.300,1577.000,0.500,1765.000,1.000,626.000,5.000,0
"04/03/08","15:15:33",16652.000,"cc",28314.578,6.00,6,0.100,10301.000,0.200,2277.000,0.300,1686.000,0.500,1764.000,1.000,624.000,5.000,0
"04/03/08","15:15:39",16907.000,"cc",28321.865,6.00,6,0.100,10429.000,0.200,2284.000,0.300,1712.000,0.500,1836.000,1.000,646.000,5.000,0
"04/03/08","15:15:45",16634.000,"cc",28311.043,6.00,6,0.100,10358.000,0.200,2289.000,0.300,1633.000,0.500,1755.000,1.000,599.000,5.000,0
"04/03/08","15:15:51",16700.000,"cc",28324.541,6.00,6,0.100,10206.000,0.200,2292.000,0.300,1767.000,0.500,1808.000,1.000,627.000,5.000,0
"04/03/08","15:15:57",16910.000,"cc",28284.051,6.00,6,0.100,10519.000,0.200,2313.000,0.300,1690.000,0.500,1743.000,1.000,645.000,5.000,0
"04/03/08","15:16:03",16790.000,"cc",28339.379,6.00,6,0.100,10399.000,0.200,2307.000,0.300,1686.000,0.500,1808.000,1.000,590.000,5.000,0
"04/03/08","15:16:09",16879.000,"cc",28350.264,6.00,6,0.100,10397.000,0.200,2319.000,0.300,1731.000,0.500,1765.000,1.000,667.000,5.000,0
"04/03/08","15:16:15",16439.000,"cc",28280.283,6.00,6,0.100,10174.000,0.200,2261.000,0.300,1622.000,0.500,1775.000,1.000,607.000,5.000,0
"04/03/08","15:16:21",16618.000,"cc",28357.383,6.00,6,0.100,10237.000,0.200,2323.000,0.300,1677.000,0.500,1767.000,1.000,614.000,5.000,0